Regional Weather Roundup
Issued by NWS

Home | Current Version | Previous Version | Graphics & Text | Print | Product List | Glossary On
Versions: 1 2 3 4 5 6 7 8 9 10 11 12 13 14 15 16 17 18 19 20 21 22 23 24 25 26 27 28 29 30 31 32 33 34 35 36 37 38 39 40 41 42 43 44 45 46 47 48 49 50
000
ASUS43 KLMK 031110
RWRKY
KENTUCKY REGIONAL WEATHER ROUNDUP
NATIONAL WEATHER SERVICE LOUISVILLE KY
700 AM EDT THU SEP 03 2015

NOTE "FAIR" INDICATES FEW OR NO CLOUDS BELOW 12,000 FEET
WITH NO SIGNIFICANT WEATHER AND/OR OBSTRUCTIONS TO VISIBILITY.

KYZ001>023-026-027-061>063-070>075-031200-
WESTERN AND SOUTH CENTRAL KENTUCKY

CITY           SKY/WX    TMP DP  RH WIND       PRES   REMARKS
PADUCAH        CLEAR     66  65  96 CALM      30.01S
HENDERSON      CLEAR     66  63  88 CALM      30.01R
OWENSBORO      CLEAR     69  68  97 CALM      30.03R
HOPKINSVILLE   CLEAR     70  66  89 CALM      30.02R
BOWLING GREEN  CLEAR     67  64  90 CALM      30.03R FOG
GLASGOW          N/A     64  64 100 CALM      30.04R FOG
$$

KYZ024-025-028>034-038-045-046-053-031200-
NORTH CENTRAL KENTUCKY

CITY           SKY/WX    TMP DP  RH WIND       PRES   REMARKS
LOUISVILLE/SDF CLEAR     71  68  90 SE3       30.03R FOG
LOUISVILLE/LOU CLEAR     71  68  90 CALM      30.04R FOG
FORT KNOX      CLEAR     65  64  96 W1        30.02S FOG
$$

KYZ035>037-039>044-047>052-055>060-089>105-031200-
NORTHEAST KENTUCKY

CITY           SKY/WX    TMP DP  RH WIND       PRES   REMARKS
LEXINGTON      CLEAR     67  64  90 CALM      30.05R FOG
COVINGTON      PTCLDY    69  66  90 CALM      30.04R FOG
FRANKFORT      CLEAR     66  63  90 N3        30.04R FOG
$$

KYZ054-064>069-076>088-106>120-031200-
SOUTHEAST KENTUCKY

CITY           SKY/WX    TMP DP  RH WIND       PRES   REMARKS
JACKSON        MOCLDY    67  66  97 CALM      30.06R FOG
LONDON         CLOUDY    65  61  87 CALM      30.06R FOG
SOMERSET       FOG       64  64 100 CALM      30.06S VSB<1/4
MIDDLESBORO    FOG       64  64 100 CALM      30.08S VSB 1
MONTICELLO     MOSUNNY   64  64 100 CALM      30.08R FOG
$$



USA.gov is the U.S. government's official web portal to all federal, state and local government web resources and services.